Main page
METAR-TAF:

METAR-TAF

Airports :

Oil platform

Heimdal, Norway

latitude: 59-34-12N, longitude: 2-13-48E, elevation: 10 m

Current weather observation

The report was made 23 minutes ago, at 19:20 UTC
Wind 40 kt from the West with gusts up to 55 kt
Temperature 5°C
Humidity 75%
Pressure 994 hPa
Visibility 10 km or more
light rain showers

METAR: ENHM 291920Z AUTO 28040G55KT 9999NDV -SHRA FEW018/// SCT041/// BKN077/// 05/01 Q0994 W08/S/

Time: 20:43 (19:43 UTC)


TAF: missing

Weather observations and forecasts of more than 4000 airports (METAR and TAF reports).

The available stations are represented by yellow and red dots on the map.

Hover mouse over dot to see the name of the station.

Then click to see weather observations and forecasts.

To change the map : click on the green buttons with a black cross to zoom in, on the green button with a dash to zoom out, or on the green arrows for adjacent maps.


METAR-TAF: